Date String (YYYY-MM-DD hh:mm:ss) UTC,Instrument flags,Ambient pressure (hPa),Sample flow (lpm),Bypass flow (lpm),Sample temperature (°C),Ambient temperature (°C),ASC tube jacket temperature (°C),LED temperature (°C),Box temperature (°C),Sample RH (%),Span deviation,Mass concentration (μg/m³),Mass concentration (μg/m³),Mass concentration (μg/m³)
DateTimeUTC,F1_M11,P_M11,Q1_M11,Q2_M11,T1_M11,T2_M11,T3_M11,T4_M11,T5_M11,U1_M11,ZSPAN_M11,X0_M11,X2_M11,X1_M11
2021-09-15 13:00:00,,0826.5,5.00,0.00,29.0,28.3,00.0,38.2,30.8,22.2,0001.2,0013.72,0009.13,0008.13
2021-09-15 13:01:00,,0826.5,5.01,0.00,29.0,28.3,00.0,38.2,30.8,22.0,0001.3,0014.09,0009.11,0008.12
2021-09-15 13:02:00,,0826.5,5.00,0.00,29.0,28.3,00.0,38.2,30.8,21.9,0001.5,0014.13,0009.09,0008.13
2021-09-15 13:03:00,,0826.5,4.98,0.00,29.0,28.3,00.0,38.2,30.8,21.6,0001.4,0014.51,0009.02,0008.13
2021-09-15 13:04:00,,0826.5,5.01,0.00,29.0,28.3,00.0,38.2,30.8,21.8,0001.3,0015.08,0008.99,0008.12
2021-09-15 13:05:00,,0826.5,4.99,0.00,29.0,28.3,00.0,38.2,30.8,22.0,0001.2,0016.10,0009.00,0008.13
2021-09-15 13:06:00,,0826.6,5.00,0.00,29.0,28.3,00.0,38.2,30.8,22.2,0000.9,0016.55,0008.97,0008.13
2021-09-15 13:07:00,,0826.7,5.00,0.00,29.0,28.3,00.0,38.2,30.8,22.2,0001.0,0016.61,0008.94,0008.14
2021-09-15 13:08:00,,0826.6,5.00,0.00,29.0,28.3,00.0,38.2,30.7,22.6,0001.2,0016.66,0008.93,0008.12
2021-09-15 13:09:00,,0826.5,4.99,0.00,29.0,28.3,00.0,38.2,30.7,22.8,0001.4,0016.71,0008.91,0008.12
2021-09-15 13:10:00,,0826.5,4.98,0.00,29.0,28.3,00.0,38.2,30.7,22.9,0001.5,0016.65,0008.91,0008.12
2021-09-15 13:11:00,,0826.5,5.00,0.00,29.0,28.3,00.0,38.2,30.8,22.8,0001.6,0016.57,0008.88,0008.10
2021-09-15 13:12:00,,0826.5,4.99,0.00,29.0,28.3,00.0,38.2,30.8,22.8,0001.5,0016.28,0008.87,0008.10
2021-09-15 13:13:00,,0826.4,5.01,0.00,29.0,28.4,00.0,38.2,30.8,22.7,0001.5,0016.50,0008.88,0008.11
2021-09-15 13:14:00,,0826.4,5.00,0.00,29.0,28.4,00.0,38.2,30.8,22.6,0001.5,0016.13,0008.92,0008.10
2021-09-15 13:15:00,,0826.5,4.99,0.00,29.0,28.4,00.0,38.2,30.8,22.8,0001.5,0015.51,0008.95,0008.11
2021-09-15 13:16:00,,0826.5,4.99,0.00,29.0,28.4,00.0,38.2,30.8,23.0,0001.3,0015.18,0008.94,0008.11
2021-09-15 13:17:00,,0826.5,5.01,0.00,29.0,28.4,00.0,38.2,30.8,23.2,0001.5,0014.77,0008.97,0008.14
2021-09-15 13:18:00,,0826.5,5.00,0.00,29.0,28.4,00.0,38.2,30.8,23.5,0001.7,0014.88,0008.99,0008.14
2021-09-15 13:19:00,,0826.5,4.99,0.00,29.0,28.4,00.0,38.2,30.8,23.5,0001.8,0015.03,0009.03,0008.14
2021-09-15 13:20:00,,0826.5,5.00,0.00,29.0,28.3,00.0,38.2,30.8,23.4,0001.7,0015.00,0009.04,0008.14
2021-09-15 13:21:00,,0826.5,5.02,0.00,29.0,28.3,00.0,38.2,30.8,23.9,0001.6,0014.92,0009.03,0008.13
2021-09-15 13:22:00,,0826.5,5.00,0.00,29.0,28.3,00.0,38.2,30.7,24.3,0001.5,0015.06,0009.07,0008.16
2021-09-15 13:23:00,,0826.5,5.00,0.00,29.0,28.3,00.0,38.2,30.7,24.9,0001.6,0014.87,0009.11,0008.18
2021-09-15 13:24:00,,0826.5,4.99,0.00,29.0,28.3,00.0,38.2,30.7,25.3,0001.8,0014.67,0009.14,0008.18
2021-09-15 13:25:00,,0826.5,5.01,0.00,29.0,28.3,00.0,38.2,30.8,25.6,0001.6,0014.53,0009.10,0008.19
2021-09-15 13:26:00,,0826.4,5.00,0.00,29.0,28.3,00.0,38.2,30.8,26.1,0001.5,0014.56,0009.11,0008.19
2021-09-15 13:27:00,,0826.5,4.99,0.00,29.0,28.3,00.0,38.2,30.8,26.0,0001.8,0014.21,0009.13,0008.19
2021-09-15 13:28:00,,0826.5,5.00,0.00,29.0,28.3,00.0,38.1,30.8,25.3,0002.0,0014.42,0009.14,0008.20
2021-09-15 13:29:00,,0826.5,5.01,0.00,29.0,28.3,00.0,38.2,30.8,24.8,0001.8,0015.10,0009.18,0008.20
2021-09-15 13:30:00,,0826.5,4.99,0.00,29.0,28.3,00.0,38.1,30.8,24.7,0001.7,0015.29,0009.20,0008.21
2021-09-15 13:31:00,,0826.5,5.01,0.00,29.0,28.4,00.0,38.1,30.8,24.8,0001.6,0015.68,0009.25,0008.23
2021-09-15 13:32:00,,0826.5,4.99,0.00,29.1,28.4,00.0,38.1,30.8,24.9,0001.7,0015.97,0009.32,0008.25
2021-09-15 13:33:00,,0826.5,5.01,0.00,29.1,28.4,00.0,38.2,30.9,25.1,0001.6,0016.23,0009.31,0008.26
2021-09-15 13:34:00,,0826.5,4.99,0.00,29.1,28.5,00.0,38.2,30.9,25.4,0001.6,0016.13,0009.33,0008.25
2021-09-15 13:35:00,,0826.5,5.00,0.00,29.1,28.5,00.0,38.2,31.0,25.0,0001.6,0016.06,0009.31,0008.24
2021-09-15 13:36:00,,0826.5,5.00,0.00,29.2,28.5,00.0,38.2,30.9,24.8,0001.6,0016.24,0009.30,0008.24
2021-09-15 13:37:00,,0826.6,5.00,0.00,29.2,28.5,00.0,38.2,31.0,24.8,0001.8,0016.24,0009.30,0008.25
2021-09-15 13:38:00,,0826.7,5.01,0.00,29.2,28.5,00.0,38.2,31.0,24.7,0001.6,0016.08,0009.30,0008.26
2021-09-15 13:39:00,,0826.6,5.00,0.00,29.2,28.5,00.0,38.3,31.0,24.6,0001.5,0015.66,0009.29,0008.25
2021-09-15 13:40:00,,0826.5,4.98,0.00,29.2,28.5,00.0,38.3,30.9,23.8,0001.2,0015.22,0009.23,0008.25
2021-09-15 13:41:00,,0826.5,5.02,0.00,29.2,28.5,00.0,38.3,30.9,24.1,0001.5,0014.88,0009.19,0008.25
2021-09-15 13:42:00,,0826.5,4.99,0.00,29.2,28.5,00.0,38.3,31.0,24.5,0001.6,0014.72,0009.20,0008.26
2021-09-15 13:43:00,,0826.5,5.00,0.00,29.2,28.5,00.0,38.3,30.9,24.8,0001.2,0014.64,0009.18,0008.26
2021-09-15 13:44:00,,0826.5,5.01,0.00,29.2,28.5,00.0,38.3,30.9,25.2,0001.5,0014.35,0009.19,0008.27
2021-09-15 13:45:00,,0826.5,5.00,0.00,29.2,28.5,00.0,38.3,31.0,25.3,0001.3,0014.27,0009.14,0008.25
2021-09-15 13:46:00,,0826.5,4.99,0.00,29.2,28.5,00.0,38.3,31.0,25.8,0001.2,0014.24,0009.12,0008.24
2021-09-15 13:47:00,,0826.5,5.00,0.00,29.2,28.6,00.0,38.3,31.0,25.8,0001.0,0014.54,0009.11,0008.22
2021-09-15 13:48:00,,0826.5,5.00,0.00,29.3,28.6,00.0,38.3,31.0,25.2,0000.6,0014.84,0009.09,0008.19
2021-09-15 13:49:00,,0826.5,4.99,0.00,29.3,28.6,00.0,38.3,31.1,25.1,0000.7,0015.01,0009.08,0008.15
2021-09-15 13:50:00,,0826.5,5.02,0.00,29.3,28.6,00.0,38.3,31.1,25.8,0001.0,0015.34,0009.04,0008.12
2021-09-15 13:51:00,,0826.5,4.98,0.00,29.3,28.7,00.0,38.4,31.1,25.8,0001.3,0015.18,0009.02,0008.09
2021-09-15 13:52:00,,0826.6,5.02,0.00,29.3,28.7,00.0,38.4,31.1,25.7,0001.2,0015.44,0008.98,0008.04
2021-09-15 13:53:00,,0826.6,5.00,0.00,29.4,28.7,00.0,38.4,31.1,26.2,0001.0,0015.54,0008.89,0007.99
2021-09-15 13:54:00,,0826.5,4.99,0.00,29.3,28.7,00.0,38.4,31.1,24.6,0001.1,0015.38,0008.85,0007.96
2021-09-15 13:55:00,,0826.5,5.01,0.00,29.4,28.7,00.0,38.4,31.1,23.5,0001.2,0015.71,0008.83,0007.93
2021-09-15 13:56:00,,0826.5,4.99,0.00,29.4,28.7,00.0,38.4,31.1,23.6,0001.3,0015.76,0008.76,0007.90
2021-09-15 13:57:00,,0826.5,5.01,0.00,29.4,28.7,00.0,38.4,31.2,23.3,0001.3,0015.70,0008.73,0007.89
2021-09-15 13:58:00,,0826.5,4.99,0.00,29.4,28.7,00.0,38.5,31.2,23.0,0001.5,0015.33,0008.72,0007.90
2021-09-15 13:59:00,,0826.5,5.00,0.00,29.4,28.7,00.0,38.5,31.2,22.9,0002.1,0015.74,0008.72,0007.91
